TimeCST,TemperatureF,Dew PointF,Humidity,Sea Level PressureIn,VisibilityMPH,Wind Direction,Wind SpeedMPH,Gust SpeedMPH,PrecipitationIn,Events,Conditions,WindDirDegrees,DateUTC
12:15 AM,50.0,46.4,87,29.88,10.0,SSW,8.1,-,N/A,,Mostly Cloudy,200,2012-12-07 06:15:00
12:35 AM,50.0,46.4,87,29.88,10.0,SSW,8.1,-,N/A,,Overcast,200,2012-12-07 06:35:00
12:55 AM,50.0,46.4,87,29.88,10.0,SSW,4.6,-,N/A,,Overcast,210,2012-12-07 06:55:00
1:15 AM,50.0,46.4,87,29.88,10.0,SSW,4.6,-,N/A,,Overcast,210,2012-12-07 07:15:00
1:35 AM,50.0,46.4,87,29.88,10.0,South,3.5,-,N/A,,Overcast,190,2012-12-07 07:35:00
1:55 AM,50.0,46.4,87,29.88,10.0,South,3.5,-,N/A,,Overcast,180,2012-12-07 07:55:00
2:15 AM,50.0,46.4,87,29.88,10.0,South,3.5,-,N/A,,Overcast,180,2012-12-07 08:15:00
2:35 AM,50.0,46.4,87,29.88,10.0,South,3.5,-,N/A,,Overcast,190,2012-12-07 08:35:00
2:55 AM,50.0,46.4,87,29.88,10.0,Calm,Calm,-,N/A,,Overcast,0,2012-12-07 08:55:00
3:15 AM,50.0,46.4,87,29.88,7.0,SSW,3.5,-,N/A,Rain,Rain,210,2012-12-07 09:15:00
3:35 AM,50.0,46.4,87,29.88,10.0,Calm,Calm,-,N/A,,Overcast,0,2012-12-07 09:35:00
3:55 AM,50.0,48.2,94,29.87,10.0,Calm,Calm,-,N/A,,Overcast,0,2012-12-07 09:55:00
4:15 AM,50.0,46.4,87,29.87,10.0,Calm,Calm,-,N/A,,Overcast,0,2012-12-07 10:15:00
4:35 AM,50.0,46.4,87,29.87,10.0,Calm,Calm,-,N/A,,Overcast,0,2012-12-07 10:35:00
4:55 AM,50.0,46.4,87,29.87,10.0,Calm,Calm,-,N/A,,Overcast,0,2012-12-07 10:55:00
5:15 AM,50.0,46.4,87,29.86,10.0,Calm,Calm,-,N/A,,Overcast,0,2012-12-07 11:15:00
5:35 AM,50.0,46.4,87,29.87,10.0,Calm,Calm,-,N/A,,Overcast,0,2012-12-07 11:35:00
5:55 AM,50.0,46.4,87,29.87,10.0,Calm,Calm,-,N/A,,Overcast,0,2012-12-07 11:55:00
6:15 AM,50.0,46.4,87,29.87,10.0,Calm,Calm,-,N/A,,Overcast,0,2012-12-07 12:15:00
6:35 AM,50.0,46.4,87,29.88,10.0,Calm,Calm,-,N/A,,Overcast,0,2012-12-07 12:35:00
6:55 AM,50.0,46.4,87,29.87,10.0,Calm,Calm,-,N/A,,Overcast,0,2012-12-07 12:55:00
7:15 AM,50.0,46.4,87,29.87,7.0,Calm,Calm,-,N/A,,Overcast,0,2012-12-07 13:15:00
7:35 AM,50.0,46.4,87,29.88,7.0,Calm,Calm,-,N/A,,Overcast,0,2012-12-07 13:35:00
7:55 AM,50.0,48.2,94,29.88,7.0,Calm,Calm,-,N/A,,Overcast,0,2012-12-07 13:55:00
8:15 AM,50.0,48.2,94,29.87,7.0,Calm,Calm,-,N/A,,Overcast,0,2012-12-07 14:15:00
8:35 AM,50.0,48.2,94,29.88,10.0,Calm,Calm,-,N/A,,Overcast,0,2012-12-07 14:35:00
8:55 AM,50.0,48.2,94,29.88,10.0,Calm,Calm,-,N/A,,Overcast,0,2012-12-07 14:55:00
9:15 AM,50.0,46.4,87,29.88,10.0,Calm,Calm,-,N/A,,Overcast,0,2012-12-07 15:15:00
9:35 AM,51.8,48.2,88,29.89,10.0,SSE,3.5,-,N/A,,Overcast,160,2012-12-07 15:35:00
9:55 AM,-9999,-9999,N/A,-9999,-9999.0,North,-9999.0,-,N/A,,Unknown,0,2012-12-07 15:55:00
10:15 AM,-9999,-9999,N/A,-9999,-9999.0,North,-9999.0,-,N/A,,Unknown,0,2012-12-07 16:15:00
10:35 AM,-9999,-9999,N/A,-9999,-9999.0,North,-9999.0,-,N/A,,Unknown,0,2012-12-07 16:35:00
10:55 AM,51.8,50.0,94,29.87,3.0,SSE,4.6,-,N/A,,Overcast,160,2012-12-07 16:55:00
11:15 AM,50.0,50.0,100,29.87,1.8,Calm,Calm,-,N/A,,Overcast,0,2012-12-07 17:15:00
11:35 AM,51.8,50.0,94,29.86,1.2,Calm,Calm,-,N/A,,Overcast,0,2012-12-07 17:35:00
11:55 AM,51.8,50.0,94,29.84,2.5,Calm,Calm,-,N/A,,Overcast,0,2012-12-07 17:55:00
12:15 PM,51.8,50.0,94,29.84,3.0,Calm,Calm,-,N/A,,Overcast,0,2012-12-07 18:15:00
12:35 PM,51.8,50.0,94,29.83,4.0,Calm,Calm,-,N/A,,Overcast,0,2012-12-07 18:35:00
12:55 PM,51.8,50.0,94,29.82,4.0,Calm,Calm,-,N/A,,Overcast,0,2012-12-07 18:55:00
1:15 PM,51.8,50.0,94,29.81,5.0,ESE,3.5,-,N/A,,Overcast,120,2012-12-07 19:15:00
1:35 PM,53.6,50.0,88,29.81,5.0,SE,4.6,-,N/A,,Overcast,140,2012-12-07 19:35:00
1:55 PM,53.6,50.0,88,29.81,5.0,SE,3.5,-,N/A,,Overcast,140,2012-12-07 19:55:00
2:15 PM,53.6,50.0,88,29.80,4.0,East,3.5,-,N/A,,Overcast,100,2012-12-07 20:15:00
2:35 PM,53.6,50.0,88,29.80,5.0,East,3.5,-,N/A,,Overcast,100,2012-12-07 20:35:00
3:15 PM,53.6,50.0,88,29.81,5.0,Calm,Calm,-,N/A,,Overcast,0,2012-12-07 21:15:00
3:35 PM,53.6,50.0,88,29.81,5.0,East,3.5,-,N/A,,Overcast,90,2012-12-07 21:35:00
3:55 PM,53.6,50.0,88,29.81,4.0,Calm,Calm,-,N/A,,Overcast,0,2012-12-07 21:55:00
4:15 PM,51.8,51.8,100,29.81,4.0,Calm,Calm,-,N/A,,Overcast,0,2012-12-07 22:15:00
4:35 PM,51.8,50.0,94,29.81,4.0,Calm,Calm,-,N/A,,Overcast,0,2012-12-07 22:35:00
4:55 PM,51.8,50.0,94,29.82,5.0,Calm,Calm,-,N/A,,Overcast,0,2012-12-07 22:55:00
5:15 PM,51.8,50.0,94,29.83,5.0,ESE,3.5,-,N/A,,Overcast,110,2012-12-07 23:15:00
5:35 PM,51.8,50.0,94,29.83,5.0,Calm,Calm,-,N/A,,Overcast,0,2012-12-07 23:35:00
5:55 PM,51.8,50.0,94,29.83,5.0,East,3.5,-,N/A,,Overcast,100,2012-12-07 23:55:00
6:15 PM,51.8,50.0,94,29.82,5.0,East,3.5,-,N/A,,Overcast,90,2012-12-08 00:15:00
6:35 PM,51.8,50.0,94,29.83,5.0,Calm,Calm,-,N/A,,Overcast,0,2012-12-08 00:35:00
6:55 PM,51.8,50.0,94,29.83,5.0,Calm,Calm,-,N/A,,Overcast,0,2012-12-08 00:55:00
7:15 PM,51.8,50.0,94,29.83,5.0,Calm,Calm,-,N/A,,Overcast,0,2012-12-08 01:15:00
7:35 PM,51.8,50.0,94,29.84,5.0,Calm,Calm,-,N/A,,Overcast,0,2012-12-08 01:35:00
7:55 PM,51.8,50.0,94,29.84,5.0,Calm,Calm,-,N/A,,Overcast,0,2012-12-08 01:55:00
8:55 PM,51.8,50.0,94,29.86,5.0,Calm,Calm,-,N/A,,Overcast,0,2012-12-08 02:55:00
9:15 PM,51.8,50.0,94,29.86,5.0,Calm,Calm,-,N/A,,Overcast,0,2012-12-08 03:15:00
9:35 PM,51.8,50.0,94,29.86,5.0,Calm,Calm,-,N/A,,Overcast,0,2012-12-08 03:35:00
9:55 PM,51.8,50.0,94,29.86,5.0,Calm,Calm,-,N/A,,Overcast,0,2012-12-08 03:55:00
10:35 PM,50.0,50.0,100,29.87,3.0,Calm,Calm,-,N/A,,Overcast,0,2012-12-08 04:35:00
10:55 PM,50.0,50.0,100,29.87,2.5,NNE,3.5,-,N/A,Rain,Rain,30,2012-12-08 04:55:00
11:15 PM,50.0,50.0,100,29.88,2.5,North,3.5,-,N/A,,Overcast,360,2012-12-08 05:15:00
11:35 PM,50.0,50.0,100,29.88,2.5,Calm,Calm,-,N/A,,Overcast,0,2012-12-08 05:35:00
11:55 PM,50.0,50.0,100,29.88,2.5,NNW,4.6,-,N/A,,Overcast,340,2012-12-08 05:55:00